Location: Ripley
(48.3812°N, 115.4473°W)
Time: 17:42:21
(UTC+00:00)

EO-79 - Pass Details

Date: 01 July 2022
Orbit: 588 x 603 km, 98.0° (Epoch: 17 August)

Event Time Altitude Azimuth Distance (km) Brightness Sun altitude
Rises 10:35:47 0° 2° (N) 2,856 ? -9.0°
Reaches altitude 10° 10:38:17 10° 348° (NNW) 1,952 ? -8.8°
Maximum altitude 10:41:37 23° 296° (WNW) 1,291 ? -8.4°
Drops below altitude 10° 10:44:58 10° 244° (WSW) 1,947 ? -8.1°
Enters shadow 10:45:17 - 241° (WSW) 2,052 ? -8.0°
